Location: Ocean City
(38.3360°N, 75.0850°W)
Time: 11:21:38
(UTC-05:00)

Explorer 11/Cluster Stage 4 - Pass Details

Date: 18 November 2019
Orbit: 467 x 1259 km, 28.8° (Epoch: 07 December)

Event Time Altitude Azimuth Distance (km) Brightness Sun altitude
Rises 20:05:56 0° 233° (SW) 3,225 10.3 -39.1°
Reaches altitude 10° 20:08:30 10° 222° (SW) 2,428 9.4 -39.6°
Enters shadow 20:08:49 11° 220° (SW) 2,340 9.3 -39.7°
Maximum altitude 20:13:32 29° 164° (SSE) 1,656 - -40.6°
Drops below altitude 10° 20:19:30 10° 107° (ESE) 2,917 - -41.8°
Sets 20:22:53 0° 98° (E) 3,991 - -42.4°
